EHI
0 0 0 0 0 0 0 0 0 0 0 0 0 0 0 0 0 0 0 0 0 0 0 0 0 0 0 1 2 4 4 4 5 9 10 9 7 6 4 2 2 2 1 0
0 0 0 0 0 0 0 0 0 0 0 0 0 0 0 0 0 0 0 0 0 0 0 0 0 1 2 2 1 3 3 3 4 7 9 8 6 6 5 2 2 2 2 1
0 0 0 0 0 0 0 0 0 0 0 0 0 0 0 0 0 0 0 0 0 0 0 0 0 2 3 2 1 2 3 2 3 5 6 5 4 4 3 2 1 2 3 3
0 0 0 0 0 0 0 0 0 0 0 0 0 0 0 0 0 0 0 0 0 0 0 0 0 1 2 2 1 2 3 3 3 3 3 2 2 2 1 1 1 1 2 4
0 0 0 0 0 0 0 0 0 0 0 0 0 0 0 0 0 0 0 0 0 0 0 0 0 0 1 2 2 2 3 3 3 1 1 1 1 1 0 0 1 1 2 4
0 0 0 0 0 0 0 0 0 0 0 0 0 0 0 0 0 0 0 0 0 0 0 0 0 0 2 3 2 2 3 3 2 1 0 0 1 1 0 0 0 0 1 1
0 0 0 0 0 0 0 0 0 0 0 0 0 0 0 0 0 0 0 0 0 0 0 0 0 1 2 3 2 2 3 3 2 1 0 0 1 1 1 0 0 0 0 0
0 0 0 0 0 0 0 0 0 0 0 0 0 0 0 0 0 0 0 0 0 0 0 0 0 1 2 2 2 2 3 3 2 1 0 0 1 2 1 0 0 0 0 0
0 0 0 0 0 0 0 0 0 0 0 0 0 0 0 0 0 0 0 0 0 0 0 0 0 1 2 2 2 3 3 3 2 1 0 0 0 1 1 0 0 0 0 0
0 0 0 0 0 0 0 0 0 0 0 0 0 0 0 0 0 0 0 0 0 0 0 0 0 1 1 1 1 3 3 3 2 1 0 0 0 0 0 0 0 0 0 0
0 0 0 0 0 0 0 0 0 0 0 0 0 0 0 0 0 0 0 0 0 0 0 0 0 0 0 0 0 2 3 2 1 0 0 0 0 0 0 0 0 0 0 0
0 0 0 0 0 0 0 0 0 0 0 0 0 0 0 0 0 0 0 0 0 0 0 0 0 0 0 0 0 1 1 1 0 0 0 0 0 0 0 0 0 0 0 0
0 0 0 0 0 0 0 0 0 0 0 0 0 0 0 0 0 0 0 0 0 0 0 0 0 0 0 1 0 0 0 0 0 0 0 0 0 0 0 0 0 0 0 0
0 0 0 0 0 0 0 0 0 0 0 0 0 0 0 0 0 0 0 0 0 0 0 0 0 0 0 0 0 0 0 0 0 0 0 0 0 0 0 0 0 0 0 0
0 0 0 0 0 0 0 0 0 0 0 0 0 0 0 0 0 0 0 0 0 0 0 0 0 0 0 0 0 0 0 0 0 0 0 0 0 0 0 0 0 0 0 0
0 0 0 0 0 0 0 0 0 0 0 0 0 0 0 0 0 0 0 0 0 0 0 0 0 0 0 0 0 0 0 0 0 0 0 0 0 0 0 0 0 0 0 0
0 0 0 0 0 0 0 0 0 0 0 0 0 0 0 0 0 0 0 0 0 0 0 0 0 0 0 0 0 0 0 0 0 0 0 0 0 0 0 0 0 0 0 0
0 0 0 0 0 0 0 0 0 0 0 0 0 0 0 0 0 0 0 0 0 0 0 0 0 0 0 0 0 0 0 0 0 0 0 0 0 0 0 0 0 0 0 0
0 0 0 0 0 0 0 0 0 0 0 0 0 0 0 0 0 0 0 0 0 0 0 0 0 0 0 0 0 0 0 0 0 0 0 0 0 0 0 0 0 0 0 0
0 0 0 0 0 0 0 0 0 0 0 0 0 0 0 0 0 0 0 0 0 0 0 0 0 0 0 0 0 0 0 0 0 0 0 0 0 0 0 0 0 0 0 0
0 0 0 0 0 0 0 0 0 0 0 0 0 0 0 0 0 0 0 0 0 0 0 0 0 0 0 0 0 0 0 0 0 0 0 0 0 0 0 0 0 0 0 0
0 0 0 0 0 0 0 0 0 0 0 0 0 0 0 0 0 0 0 0 0 0 0 0 0 0 0 0 0 0 0 0 0 0 0 0 0 0 0 0 0 0 0 0
0 0 0 0 0 0 0 0 0 0 0 0 0 0 0 0 0 0 0 0 0 0 0 0 0 0 0 0 0 0 0 0 0 0 0 0 0 0 0 0 0 0 0 0
0 0 0 0 0 0 0 0 0 0 0 0 0 0 0 0 0 0 0 0 0 0 0 0 0 0 0 0 0 0 0 0 0 0 0 0 0 0 0 0 0 0 0 0
0 0 0 0 0 0 0 0 0 0 0 0 0 0 0 0 0 0 0 0 0 0 0 0 0 0 0 0 0 0 0 0 0 0 0 0 0 0 0 0 0 0 0 0
0 0 0 0 0 0 0 0 0 0 0 0 0 0 0 0 0 0 0 0 0 0 0 0 0 0 0 0 0 0 0 0 0 0 0 0 0 0 0 0 0 0 0 0
Wind_Speed
2 1 1 2 4 4 4 4 5 4 2 2 5 6 4 2 1 1 1 1 1 1 0 0 0 1 0 1 1 1 1 1 2 2 2 2 2 2 2 3 4 5 5 6
2 1 3 4 4 5 5 4 5 4 2 3 4 7 5 3 3 2 2 2 1 1 0 0 0 0 1 0 1 1 2 2 2 2 2 3 3 2 2 3 4 5 6 5
2 1 3 3 2 3 4 4 4 4 5 4 4 6 5 3 3 2 2 2 1 2 1 1 0 0 1 0 1 1 2 2 2 2 2 2 1 2 2 2 3 4 5 6
0 2 3 2 2 3 4 2 4 4 2 3 2 5 5 4 4 3 3 2 2 2 1 1 1 1 1 2 1 2 1 2 2 2 3 4 3 3 3 2 2 3 4 5
1 2 2 2 3 3 3 4 4 5 4 4 5 5 6 5 4 3 2 1 2 1 1 1 2 2 2 2 1 2 2 2 2 3 3 4 3 3 2 3 3 3 3 4
1 1 2 3 3 3 4 3 3 4 2 4 6 6 5 3 3 2 0 1 2 2 2 2 2 2 2 1 1 1 2 2 3 3 4 3 4 4 5 5 4 3 3 3
1 0 1 2 3 2 2 1 1 1 2 5 3 4 3 1 2 1 0 1 1 2 3 3 3 3 2 2 2 1 2 2 3 3 4 3 4 5 6 6 5 4 3 3
1 0 1 1 2 2 2 1 0 1 2 3 2 4 1 2 4 5 4 3 3 3 4 4 4 4 3 2 2 2 2 3 3 3 3 3 2 3 3 5 5 5 3 3
2 1 1 1 2 1 1 1 2 2 4 3 4 2 1 3 5 6 7 7 6 6 6 6 6 5 4 3 3 2 3 2 3 3 3 2 2 2 3 4 4 3 3 3
2 2 2 2 1 1 1 2 1 1 2 3 4 4 2 1 3 5 6 7 7 7 6 6 6 6 5 4 3 3 3 2 2 2 2 2 2 3 3 3 4 4 4 4
2 1 1 1 1 1 1 1 1 2 3 2 3 3 2 1 1 2 4 5 6 6 6 6 7 6 5 4 3 3 2 1 1 1 2 2 2 2 3 3 4 4 4 4
2 1 2 2 1 1 1 1 1 1 4 3 3 4 2 3 3 3 4 5 5 5 6 6 6 6 5 5 4 4 2 1 1 1 1 1 2 2 2 3 3 4 4 4
2 1 1 1 1 0 1 2 2 3 3 3 3 6 1 4 4 5 5 5 5 5 5 6 6 6 6 6 5 5 3 2 1 0 1 1 1 2 2 3 4 4 4 5
2 1 2 3 2 1 3 4 4 2 3 5 6 8 8 6 6 6 5 5 5 5 5 6 5 5 6 6 6 5 4 3 2 0 1 1 1 1 1 2 3 3 4 4
1 1 3 5 6 5 6 7 6 6 6 7 8 8 8 5 5 5 4 5 6 6 7 7 7 6 6 7 6 5 4 3 2 1 0 0 0 1 1 2 2 3 3 3
0 1 2 5 6 6 8 9 8 8 8 9 10 11 4 4 4 5 5 5 6 6 7 7 7 7 6 6 7 6 4 3 2 2 2 1 1 1 1 2 2 3 3 3
1 1 2 3 2 5 8 7 7 6 5 6 8 7 4 4 5 5 5 5 5 6 7 7 7 7 7 6 6 6 5 3 2 2 2 1 1 2 2 2 2 3 3 3
2 1 2 3 2 6 5 1 3 4 6 5 6 4 4 5 5 4 3 3 5 6 7 7 7 7 7 7 6 5 5 4 3 2 2 2 2 2 2 2 2 2 2 3
3 3 2 2 4 8 3 1 2 2 6 5 5 4 4 5 5 3 2 4 4 5 5 5 5 6 6 6 6 5 4 4 4 3 2 2 1 2 3 3 2 2 2 3
2 2 2 3 3 6 2 2 1 0 5 1 1 3 3 4 4 4 4 5 5 5 4 5 5 6 6 6 6 5 4 4 4 3 2 2 1 2 2 2 2 2 3 3
3 3 5 5 6 7 1 2 2 2 5 2 1 2 2 3 4 5 5 4 4 4 4 4 4 4 5 6 6 5 5 5 4 3 2 2 2 2 2 2 2 3 3 4
6 5 5 4 5 8 3 4 4 4 2 2 3 3 3 4 5 5 4 4 4 4 4 4 4 4 4 5 5 5 5 5 5 4 3 3 3 2 3 3 3 3 4 4
6 6 4 7 7 2 4 3 2 1 2 3 3 3 3 4 5 5 5 4 4 4 4 4 4 4 4 4 4 4 5 5 5 4 4 3 3 3 3 3 3 3 3 3
4 2 3 5 6 4 4 3 2 2 3 3 3 3 3 4 5 5 4 4 4 4 3 3 3 3 4 4 4 4 4 4 4 4 3 3 3 3 3 3 2 2 2 2
4 4 4 7 6 4 4 4 3 3 3 3 3 3 3 4 4 4 4 4 3 3 3 3 2 3 4 4 4 4 4 4 3 3 3 3 3 3 3 3 2 2 2 1
5 6 7 7 4 4 4 2 3 3 3 3 3 4 3 3 4 4 3 3 2 2 2 2 3 3 3 4 4 4 4 3 3 3 3 2 2 2 2 2 3 4 3 4
Wind_Direction
159 144 218 249 230 247 255 266 264 270 295 292 253 260 267 262 185 245 279 265 236 235 265 326 290 295 28 84 115 158 215 210 172 162 171 178 190 181 168 170 168 163 157 154
148 232 259 262 267 259 253 256 268 281 292 281 263 268 264 241 220 215 244 272 273 260 269 330 343 358 345 135 161 177 205 214 203 182 184 187 190 187 180 175 177 170 160 156
135 331 296 279 288 276 262 241 252 279 308 272 267 274 245 226 221 220 245 267 292 286 312 335 330 310 299 243 185 210 218 216 214 197 168 168 168 163 174 176 177 174 164 159
79 319 297 286 298 283 267 280 283 268 289 273 247 275 245 209 219 221 229 261 266 277 308 314 290 266 276 257 205 192 211 224 216 198 178 180 181 184 190 173 166 168 162 159
17 347 311 297 300 288 274 294 274 262 248 270 244 252 258 181 218 217 215 248 273 267 271 288 286 260 273 268 213 199 206 217 224 206 198 195 191 189 161 154 155 170 171 166
275 309 324 315 300 279 283 288 266 251 240 254 230 224 262 197 219 202 249 285 314 327 315 295 290 286 289 298 243 219 217 221 217 212 203 200 195 184 166 164 165 173 178 176
273 176 24 328 310 280 312 337 337 248 211 242 227 225 237 70 50 69 315 323 336 330 324 321 316 311 307 312 280 249 240 243 228 214 205 202 200 191 181 174 174 172 179 184
346 7 65 19 349 314 301 316 174 257 257 287 278 237 221 70 43 36 29 24 14 0 346 332 323 313 308 300 279 246 238 235 230 218 210 197 188 189 189 181 174 174 176 185
348 1 37 4 319 331 325 286 289 291 283 264 249 224 210 39 36 22 15 16 6 0 354 344 333 329 327 309 279 259 242 235 229 222 211 195 190 193 194 184 162 162 164 165
327 305 303 307 263 304 304 312 314 274 286 276 263 245 233 21 0 2 2 3 359 353 350 343 334 331 324 315 307 291 263 230 218 215 211 201 197 200 189 177 157 154 157 156
325 291 283 275 226 236 218 251 272 266 262 262 272 275 41 66 39 2 354 352 350 347 341 337 331 329 327 326 320 310 285 276 234 223 220 191 187 195 177 166 162 156 151 150
337 308 275 258 253 258 236 237 207 237 275 276 279 271 30 42 23 13 2 349 346 349 339 333 331 332 335 336 333 325 320 311 296 277 238 187 184 181 173 164 163 152 154 158
349 316 292 292 243 235 260 262 266 258 271 258 256 266 345 355 347 4 359 343 340 347 343 341 343 342 342 341 341 335 333 337 318 305 239 208 194 184 183 174 166 159 158 159
323 228 226 239 271 284 272 270 270 245 238 260 247 268 291 312 330 342 344 339 338 341 342 348 348 342 343 344 344 339 335 345 343 328 222 201 213 180 168 170 160 154 155 156
342 243 256 273 283 276 265 264 254 241 242 247 265 272 283 302 311 319 331 332 337 341 347 351 346 346 347 343 340 337 339 359 0 353 348 290 34 119 129 138 139 143 143 145
329 273 292 275 262 262 265 258 251 252 253 257 271 279 289 307 321 327 333 335 334 336 342 344 345 345 346 341 336 336 337 349 5 10 8 10 47 98 119 134 136 137 137 138
210 209 276 275 286 301 268 238 220 232 240 245 255 267 315 320 314 315 321 326 333 335 336 340 341 340 337 335 334 331 332 340 358 11 8 7 46 86 91 102 124 133 138 136
195 226 245 283 313 252 242 146 179 233 257 252 266 291 303 298 298 302 312 334 334 332 330 334 336 333 334 335 331 333 344 354 0 6 22 16 34 79 81 85 102 112 125 137
200 201 240 250 266 273 244 208 164 220 271 242 251 279 306 325 315 300 350 350 328 321 324 329 330 327 332 336 333 341 352 1 8 3 12 14 44 71 78 80 93 103 110 115
195 203 226 233 249 258 254 118 114 92 274 278 246 277 302 330 304 292 329 329 327 329 332 333 335 335 337 337 340 348 351 1 0 355 1 8 57 78 79 78 81 92 107 110
180 205 219 233 246 262 196 137 116 196 263 330 304 283 285 275 270 302 322 323 321 325 329 335 338 335 333 337 347 350 355 357 352 360 20 36 54 73 83 74 69 85 94 94
187 192 205 206 228 252 152 143 192 237 313 327 317 304 293 294 302 313 319 320 323 327 329 335 335 333 338 346 352 353 355 352 356 12 36 43 48 57 72 83 76 81 93 93
205 202 201 206 220 214 162 195 226 336 299 302 305 300 292 294 295 304 307 311 316 321 324 332 334 334 345 352 357 354 350 357 4 21 38 47 52 55 59 77 82 77 80 88
222 193 240 264 261 248 225 239 272 286 280 290 290 290 284 282 288 293 299 304 310 319 323 333 338 340 344 349 358 356 350 359 11 24 29 38 50 51 48 54 66 78 82 90
221 176 227 257 272 286 250 234 248 268 278 284 282 276 272 274 280 282 287 292 301 313 319 330 329 331 337 348 357 356 358 6 15 23 30 33 43 53 49 48 54 64 65 113
204 196 204 236 233 231 258 237 237 249 257 259 267 274 271 264 268 274 279 284 295 308 320 327 332 340 340 349 353 354 359 8 19 22 22 26 33 47 55 60 52 49 63 60